Regional Weather Roundup
Issued by NWS

Home | Current Version | Previous Version | Text Only | Print | Product List | Glossary Off
Versions: 1 2 3 4 5 6 7 8 9 10 11 12 13 14 15 16 17 18 19 20 21 22 23 24 25 26 27 28 29 30 31 32 33 34 35 36 37 38 39 40 41 42 43 44 45 46 47 48 49 50

308
ASUS45 KBOU 010107
RWRCO

WEATHER ROUNDUP FOR COLORADO
NATIONAL WEATHER SERVICE DENVER/BOULDER CO
600 PM MST TUE FEB 28 2017

NOTE: "FAIR" INDICATES FEW OR NO CLOUDS BELOW 12000 FEET WITH NO
SIGNIFICANT WEATHER AND/OR OBSTRUCTIONS TO VISIBILITY.

COZ001>005-013-030-031-010200-
...NORTHWEST COLORADO...

CITY           SKY/WX    TMP DP  RH WIND       PRES   REMARKS
CRAIG          CLOUDY    20  13  74 W8        29.97R WCI  10
HAYDEN         FAIR      16   5  62 W6        29.95R WCI   7
MEEKER         CLOUDY    24  18  77 N7        29.96R WCI  16
MOUNT WERNER   NOT AVBL
STEAMBOAT SPGS MOCLDY    15   7  70 W9        29.93R WCI   4
WALDEN         NOT AVBL
$$

COZ006>008-011-010200-
...WEST CENTRAL VALLEYS...

CITY           SKY/WX    TMP DP  RH WIND       PRES   REMARKS
GRAND JUNCTION MOCLDY    35  16  45 N9        29.98R WCI  28
MONTROSE       CLOUDY    31  22  69 NW20G28   29.98R WCI  19
EAGLE          MOCLDY    27  12  54 SW10      29.94R WCI  17
RIFLE          MOCLDY    33  10  38 NW16G26   29.96R WCI  23
DELTA          MOCLDY    37  16  42 W9        29.97R
NUCLA          FAIR      34  10  37 NW10      30.00R WCI  26
$$

COZ017>023-064>068-010200-
...SOUTHWEST COLORADO...

CITY           SKY/WX    TMP DP  RH WIND       PRES   REMARKS
DURANGO        FAIR      32  20  61 NW24G31   29.91R WCI  19
CORTEZ         CLOUDY    32  27  81 NE5       29.98R WCI  27
PAGOSA SPRINGS FAIR      30  19  64 SW15G22   29.88R WCI  19
TELLURIDE      LGT SNOW  21  14  72 NW15G24   29.93R WCI   8
WOLF CREEK PAS CLOUDY    10  10 100 SW24G41   29.82R WCI -10
$$

COZ009-010-012-014-032>034-037-058>063-010200-
...CENTRAL COLORADO...

CITY           SKY/WX    TMP DP  RH WIND       PRES   REMARKS
ASPEN          LGT SNOW  19  13  77 N13       29.90R WCI   6
BUENA VISTA    CLOUDY    27   4  37 W14G21    29.81R WCI  16
COPPER MTN     CLOUDY     5   0  78 MISG      29.73R
BERTHOUD PASS  SNOW      -4 -13  65 NW28      29.65R VSB 1/4 WCI -30
COTTONWOOD PAS CLOUDY    21   3  45 W17G33    29.77R HAZE    WCI   7
GUNNISON       FAIR      24   9  52 NW17      29.86S WCI  11
KREMMLING      CLOUDY    23   9  54 NW3       29.91R
LEADVILLE      LGT SNOW  10   6  84 NW12      29.79R VSB 3/4 WCI  -5
MONARCH PASS     N/A      9   5  85 MISG      29.82R
SALIDA         CLOUDY    28  22  76 W15G29    29.90R VSB 1   WCI  17
SUNLIGHT       NOT AVBL
WILKERSON PASS FAIR      12   1  62 NW14G23   29.74R WCI  -3
$$

COZ069>075-010200-
...SAN LUIS VALLEY/SANGRE DE CRISTO MOUNTAINS...

CITY           SKY/WX    TMP DP  RH WIND       PRES   REMARKS
ALAMOSA        FAIR      31  21  66 SW16      29.81R WCI  20
LA VETA PASS   LGT SNOW  21  16  79 SW28G47   29.71R VSB 3/4 WCI   3
SAGUACHE       FAIR      28  12  50 NW24G30   29.83R WCI  14
$$

COZ035-036-038>040-010200-
...NORTHERN COLORADO FRONT RANGE...

CITY           SKY/WX    TMP DP  RH WIND       PRES   REMARKS
DENVER INTL AP LGT SNOW  26  24  92 NE7       29.84R FOG     WCI  18
DMNS CITY PARK   N/A     28  26  94 N6        29.86R WCI  22
AURORA         LGT SNOW  26  25  94 NE8       29.85R FOG     WCI  18
FRONT RANGE AP NOT AVBL
ERIE MUNI ARPT FAIR      29  27  93 N3        29.86R
BOULDER MUN AP FAIR      32   1  27 W14G23    29.85R WCI  22
CENTENNIAL     CLOUDY    27  24  89 N5        29.83R WCI  22
BROOMFIELD     NOT AVBL
FORT COLLINS   FAIR      29  15  56 NW18      29.87R WCI  16
LONGMONT       NOT AVBL
$$

COZ041-046-047-076>085-087-088-010200-
...PIKES PEAK/PALMER DIVIDE AND SOUTHERN FOOTHILLS...

CITY           SKY/WX    TMP DP  RH WIND       PRES   REMARKS
COLO. SPRINGS  MOCLDY    30  23  75 N8        29.77R WCI  22
A. F. ACADEMY  CLOUDY    30  25  80 N13       29.76R WCI  20
SCHRIEVER AFB  FAIR      28  20  72 NE7       29.77R WCI  21
ELLICOTT       FAIR     N/A N/A N/A E9        29.75R
FALCON         FLURRIES  28  24  84 NE13      29.78R WCI  18
FORT CARSON    CLEAR     29  24  84 N7        29.75R WCI  21
LIMON          FLURRIES  25  22  88 NE15      29.80R WCI  13
MONUMENT HILL  LGT SNOW  23  21  93 E7        29.78R WCI  15
TRINIDAD       FAIR      45   8  22 NW18G31   29.74R
$$

COZ042>045-048>051-090-091-010200-
...NORTHEAST COLORADO...

CITY           SKY/WX    TMP DP  RH WIND       PRES   REMARKS
GREELEY ARPT   FAIR      28  26  92 VRB5      29.88R WCI  23
AKRON          CLOUDY    27  21  78 W3        29.82R
BURLINGTON     LGT SNOW  29  25  85 N18       29.82R FOG     WCI  16
WRAY           NOT AVBL
STERLING       MOCLDY    30  27  86 W7        29.83R WCI  23
HOLYOKE        FAIR      36  14  41 NW12G17   29.82R
FORT MORGAN    CLOUDY    28  26  92 SW5       29.85R WCI  22
$$

COZ086-089-092>099-010200-
...SOUTHEAST COLORADO...

CITY           SKY/WX    TMP DP  RH WIND       PRES   REMARKS
PUEBLO         FAIR      41  26  55 E3        29.74R
LA JUNTA       CLOUDY    42  26  53 NW16      29.79R
LAMAR          FAIR      41  11  29 NE15      29.77R
SPRINGFIELD      N/A     37  13  37 NE10      29.70R
$$




USA.gov is the U.S. government's official web portal to all federal, state and local government web resources and services.